Weather History for Butler, GA

Change the Weather History Date:

Wednesday, October 31, 2012

  Actual Average (KMCN) Record (KMCN)
Temperature  
Mean Temperature 54 °F 60 °F  
Max Temperature 68 °F 73 °F 88 °F (1950)
Min Temperature 44 °F 47 °F 30 °F (1910)
Degree Days  
Heating Degree Days 11 6  
Month to date heating degree days 97  
Since 1 July heating degree days 103  
Cooling Degree Days 0 1  
Month to date cooling degree days 94  
Year to date cooling degree days 2144  
Growing Degree Days 4 (Base 50)    
Moisture  
Dew Point 33 °F    
Average Humidity 56    
Maximum Humidity 71    
Minimum Humidity 28    
Precipitation  
Precipitation 0.00 in 0.08 in 1.89 in (1894)
Month to date precipitation 2.79  
Year to date precipitation 38.32  
Sea Level Pressure  
Sea Level Pressure 29.91 in    
Wind  
Wind Speed 6 mph ()    
Max Wind Speed 14 mph    
Max Gust Speed 23 mph    
Visibility 10.0 miles    
Events      
T = Trace of Precipitation, MM = Missing Value Source: Averaged Metar Reports

Daily Weather History Graph

Daily Weather History Graph

Search for Another Location

Airport:

Trip Planner

Search our weather history database for the weather conditions in past years. The results will help you decide how hot, cold, wet, or windy it might be!

Date:

Astronomy

Oct. 31, 2012 Rise Set
Actual Time 7:53 AM EDT 6:46 PM EDT
Civil Twilight 7:28 AM EDT 7:12 PM EDT
Nautical Twilight 6:59 AM EDT 7:41 PM EDT
Astronomical Twilight 6:30 AM EDT 8:09 PM EDT
Moon 8:03 PM EDT (10/31) 9:28 AM EDT (10/31)
Length of Visible Light 11h 43m
Length of Day
10h 52m
Full, 97% of the Moon is Illuminated
Oct 31
Full
Nov 6
Last Quarter
Nov 13
New
Nov 20
First Quarter
Nov 28
Full

Hourly Weather History & Observations

Time (EDT) Temp. Windchill Dew Point Humidity Pressure Visibility Wind Dir Wind Speed Gust Speed Precip Events Conditions
12:15 AM 50.0 °F - 32.0 °F 50% 29.88 in 10.0 mi West 6.9 mph - N/A   Unknown
12:35 AM 50.0 °F - 32.0 °F 50% 29.88 in 10.0 mi West 4.6 mph - N/A   Unknown
12:55 AM 50.0 °F - 32.0 °F 50% 29.88 in 10.0 mi West 5.8 mph - N/A   Unknown
1:15 AM 48.2 °F - 32.0 °F 54% 29.88 in 10.0 mi West 5.8 mph - N/A   Unknown
1:35 AM 46.4 °F 43.5 °F 32.0 °F 57% 29.88 in 10.0 mi West 5.8 mph - N/A   Unknown
1:55 AM 46.4 °F 42.9 °F 32.0 °F 57% 29.89 in 10.0 mi West 6.9 mph - N/A   Unknown
2:15 AM 46.4 °F 42.9 °F 32.0 °F 57% 29.89 in 10.0 mi West 6.9 mph - N/A   Unknown
2:35 AM 46.4 °F 42.9 °F 32.0 °F 57% 29.89 in 10.0 mi West 6.9 mph - N/A   Unknown
2:55 AM 46.4 °F 43.5 °F 32.0 °F 57% 29.89 in 10.0 mi WSW 5.8 mph - N/A   Unknown
3:15 AM 44.6 °F 40.7 °F 32.0 °F 61% 29.89 in 10.0 mi WSW 6.9 mph - N/A   Unknown
3:35 AM 44.6 °F 40.7 °F 32.0 °F 61% 29.89 in 10.0 mi WSW 6.9 mph - N/A   Unknown
3:55 AM 44.6 °F 40.7 °F 32.0 °F 61% 29.89 in 10.0 mi West 6.9 mph - N/A   Unknown
4:15 AM 44.6 °F 40.7 °F 33.8 °F 66% 29.90 in 10.0 mi WSW 6.9 mph - N/A   Unknown
4:35 AM 44.6 °F 41.4 °F 33.8 °F 66% 29.90 in 10.0 mi West 5.8 mph - N/A   Unknown
4:55 AM 44.6 °F 40.7 °F 33.8 °F 66% 29.90 in 10.0 mi West 6.9 mph - N/A   Unknown
5:15 AM 44.6 °F 40.7 °F 33.8 °F 66% 29.90 in 10.0 mi West 6.9 mph - N/A   Unknown
5:35 AM 44.6 °F 40.7 °F 33.8 °F 66% 29.90 in 10.0 mi WSW 6.9 mph - N/A   Unknown
5:55 AM 44.6 °F 40.7 °F 33.8 °F 66% 29.90 in 10.0 mi West 6.9 mph - N/A   Unknown
6:15 AM 44.6 °F 41.4 °F 33.8 °F 66% 29.90 in 10.0 mi West 5.8 mph - N/A   Unknown
6:35 AM 44.6 °F 41.4 °F 33.8 °F 66% 29.91 in 10.0 mi West 5.8 mph - N/A   Unknown
6:55 AM 44.6 °F 40.2 °F 33.8 °F 66% 29.91 in 10.0 mi West 8.1 mph - N/A   Unknown
7:15 AM 44.6 °F 40.7 °F 33.8 °F 66% 29.91 in 10.0 mi West 6.9 mph - N/A   Unknown
7:35 AM 44.6 °F 40.7 °F 33.8 °F 66% 29.91 in 10.0 mi West 6.9 mph - N/A   Unknown
7:55 AM 44.6 °F 41.4 °F 33.8 °F 66% 29.92 in 10.0 mi West 5.8 mph - N/A   Unknown
8:15 AM 44.6 °F 40.7 °F 35.6 °F 71% 29.93 in 10.0 mi West 6.9 mph - N/A   Unknown
8:35 AM 44.6 °F 40.2 °F 35.6 °F 71% 29.93 in 10.0 mi West 8.1 mph - N/A   Unknown
8:55 AM 44.6 °F 41.4 °F 35.6 °F 71% 29.94 in 10.0 mi West 5.8 mph - N/A   Unknown
9:15 AM 46.4 °F 42.9 °F 35.6 °F 66% 29.95 in 10.0 mi West 6.9 mph - N/A   Unknown
9:35 AM 50.0 °F - 35.6 °F 58% 29.95 in 10.0 mi WNW 8.1 mph - N/A   Unknown
9:55 AM 51.8 °F - 35.6 °F 54% 29.95 in 10.0 mi West 8.1 mph - N/A   Unknown
10:15 AM 53.6 °F - 33.8 °F 47% 29.95 in 10.0 mi West 6.9 mph - N/A   Unknown
10:35 AM 55.4 °F - 33.8 °F 44% 29.95 in 10.0 mi WNW 10.4 mph 16.1 mph N/A   Unknown
10:55 AM 57.2 °F - 33.8 °F 41% 29.95 in 10.0 mi WNW 8.1 mph - N/A   Unknown
11:15 AM 59.0 °F - 32.0 °F 36% 29.95 in 10.0 mi NW 9.2 mph - N/A   Unknown
11:35 AM 59.0 °F - 32.0 °F 36% 29.95 in 10.0 mi NW 9.2 mph 16.1 mph N/A   Unknown
11:55 AM 60.8 °F - 33.8 °F 36% 29.95 in 10.0 mi WNW 9.2 mph - N/A   Unknown
12:15 PM 62.6 °F - 33.8 °F 34% 29.94 in 10.0 mi WNW 10.4 mph - N/A   Unknown
12:35 PM 64.4 °F - 33.8 °F 32% 29.94 in 10.0 mi West 9.2 mph 19.6 mph N/A   Unknown
12:55 PM 64.4 °F - 33.8 °F 32% 29.92 in 10.0 mi WNW 13.8 mph 23.0 mph N/A   Unknown
1:15 PM 68.0 °F - 33.8 °F 28% 29.92 in 10.0 mi NW 11.5 mph 20.7 mph N/A   Unknown